Regional Weather Roundup
Issued by NWS

Home | Current Version | Previous Version | Graphics & Text | Print | Product List | Glossary On
Versions: 1 2 3 4 5 6 7 8 9 10 11 12 13 14 15 16 17 18 19 20 21 22 23 24 25 26 27 28 29 30 31 32 33 34 35 36 37 38 39 40 41 42 43 44 45 46 47 48 49 50
000
ASUS43 KOAX 290010
RWRNE

WEATHER ROUNDUP FOR NEBRASKA
NATIONAL WEATHER SERVICE OMAHA NE
700 PM CDT THU JUL 28 2016

NOTES: SATELLITE DATA IS BEING USED TO AUGMENT CLOUD COVER ABOVE
       12000 FEET.
       "FAIR" INDICATES FEW OR NO CLOUDS BELOW 12,000 FEET WITH NO
       SIGNIFICANT WEATHER AND/OR OBSTRUCTIONS TO VISIBILITY.

  * THESE STATIONS DO NOT REPORT WEATHER SUCH AS RAIN...SNOW OR FOG.

NEZ001>004-019>022-054>056-290100-
NEBRASKA PANHANDLE

CITY           SKY/WX    TMP DP  RH WIND       PRES   REMARKS
SCOTTSBLUFF    CLOUDY    81  54  39 CALM      30.14R
6HR MIN TEMP:  67; 6HR MAX TEMP:  82;

ALLIANCE       SUNNY     76  56  49 VRB5      30.13S
6HR MIN TEMP:  64; 6HR MAX TEMP:  78;

CHADRON        SUNNY     78  56  46 NE9       30.10S
6HR MIN TEMP:  69; 6HR MAX TEMP:  83;

KIMBALL        CLOUDY    74  54  49 E8        30.19S
SIDNEY         SUNNY     77  52  41 NE10      30.18R
6HR MIN TEMP:  63; 6HR MAX TEMP:  80;

$$

NEZ057>060-069>072-079>082-290100-
SOUTHWEST NEBRASKA

CITY           SKY/WX    TMP DP  RH WIND       PRES   REMARKS
NORTH PLATTE   SUNNY     75  61  61 N9        30.09S
6HR MIN TEMP:  64; 6HR MAX TEMP:  76; 6HR PCP:  0.23;

IMPERIAL       SUNNY     76  62  62 NE10      30.10S
6HR MIN TEMP:  62; 6HR MAX TEMP:  77; 6HR PCP:  0.24;

LEXINGTON      CLOUDY    75  65  72 N3        30.05S
MCCOOK         CLOUDY    73  62  68 NE8       30.07R
6HR MIN TEMP:  63; 6HR MAX TEMP:  80; 6HR PCP:  0.89;

OGALLALA       PTSUNNY   76  59  55 E7        30.11S
$$

NEZ005>010-023>029-035>040-094-290100-
NORTH CENTRAL NEBRASKA

CITY           SKY/WX    TMP DP  RH WIND       PRES   REMARKS
VALENTINE      CLOUDY    77  59  53 E3        30.06F
6HR MIN TEMP:  72; 6HR MAX TEMP:  78;

AINSWORTH      MOSUNNY   74  65  71 CALM      30.08S
BROKEN BOW     CLOUDY    74  67  78 NE6       30.06S
6HR MIN TEMP:  71; 6HR MAX TEMP:  79; 6HR PCP: TRACE;

O`NEILL        CLOUDY    75  62  62 CALM      30.05F
ORD            CLOUDY    75  64  68 NE6       30.03F
6HR MIN TEMP:  71; 6HR MAX TEMP:  81; 6HR PCP:  0.06;

THEDFORD       MOSUNNY   78  58  50 CALM      30.08F
$$

NEZ041-046>049-061>064-073>077-083>087-290100-
SOUTH CENTRAL NEBRASKA

CITY           SKY/WX    TMP DP  RH WIND       PRES   REMARKS
GRAND ISLAND   CLOUDY    74  68  81 NE7       30.03S
6HR MIN TEMP:  74; 6HR MAX TEMP:  85; 6HR PCP:  0.03;

AURORA         LGT RAIN  74  71  92 CALM      30.02F
HASTINGS       PTSUNNY   70  64  81 N3        30.02S
6HR MIN TEMP:  67; 6HR MAX TEMP:  83; 6HR PCP:  0.18;

HEBRON         LGT RAIN  78  67  69 NW3       30.02R
HOLDREGE       CLOUDY    69  67  92 N6        30.02R
KEARNEY *      CLOUDY    72  12  10 NE8       30.04R
YORK           CLOUDY    75  68  78 NE5       30.02S
$$

NEZ011>018-030>034-042>045-290100-
NORTHEAST NEBRASKA

CITY           SKY/WX    TMP DP  RH WIND       PRES   REMARKS
NORFOLK        PTSUNNY   76  58  53 N7        30.02S
6HR MIN TEMP:  76; 6HR MAX TEMP:  82; 6HR PCP: TRACE;

ALBION         LGT RAIN  74  65  73 CALM      30.04F
BLAIR          MOSUNNY   78  64  61 N6        30.00R
FREMONT        CLOUDY    78  62  57 CALM      30.01R
TEKAMAH        CLOUDY    79  62  56 NE8       29.98S
6HR MIN TEMP:  79; 6HR MAX TEMP:  85;

WAYNE          CLOUDY    76  65  68 N7        30.02S
$$

NEZ050>053-065>068-078-088>093-290100-
SOUTHEAST NEBRASKA

CITY           SKY/WX    TMP DP  RH WIND       PRES   REMARKS
LINCOLN        CLOUDY    80  64  58 NE12      29.99S
6HR MIN TEMP:  80; 6HR MAX TEMP:  87;

OMAHA EPPLEY   PTSUNNY   81  64  56 N8        29.98R
6HR MIN TEMP:  81; 6HR MAX TEMP:  86;

BEATRICE       MOSUNNY   81  64  57 NE10      29.98S
FALLS CITY     SUNNY     82  67  60 NE6       29.95S
6HR MIN TEMP:  82; 6HR MAX TEMP:  87;

NEBRASKA CITY  PTSUNNY   79  65  62 NE6       29.97S
PLATTSMOUTH    MOSUNNY   79  62  57 N6        29.99R
$$

NEZ044-045-051>053-067-290100-
OMAHA AREA

CITY           SKY/WX    TMP DP  RH WIND       PRES   REMARKS
OMAHA EPPLEY   PTSUNNY   81  64  56 N8        29.98R
6HR MIN TEMP:  81; 6HR MAX TEMP:  86;

BLAIR          MOSUNNY   78  64  61 N6        30.00R
FREMONT        CLOUDY    78  62  57 CALM      30.01R
MILLARD        MOSUNNY   80  62  55 N5        29.98S
OFFUTT AFB     MOSUNNY   79  61  53 N6        29.98R
PLATTSMOUTH    MOSUNNY   79  62  57 N6        29.99R
WAHOO          FAIR      77  65  65 N3        30.00R
$$




USA.gov is the U.S. government's official web portal to all federal, state and local government web resources and services.